Miscellaneous Local Product
Issued by NWS North Platte, NE

Home | Current Version | Previous Version | Graphics & Text | Print | Product List | Glossary On
Versions: 1 2 3 4 5 6 7 8 9 10 11 12 13 14 15 16 17 18 19 20 21 22 23 24 25 26 27 28 29 30 31 32 33 34 35 36 37 38 39 40 41 42 43 44 45 46 47 48 49 50
000
AXUS43 KLBF 280210
MISLBF


WESTERN AND NORTH CENTRAL NEBRASKA HOURLY WEATHER ROUNDUP
NATIONAL WEATHER SERVICE NORTH PLATTE NE
900 PM CDT SAT AUG 27 2016

NOTE: "FAIR" INDICATES FEW OR NO CLOUDS BELOW 12,000 FEET WITH NO
SIGNIFICANT WEATHER AND/OR OBSTRUCTIONS TO VISIBILITY.

NOTE: STATIONS NOT REPORTING VARIABLES SUCH AS SKY/WEATHER OR
PRESSURE ARE PROVIDED BY RAWS AND APRS NETWORKS AND ARE NOT UNDER
NATIONAL WEATHER SERVICE QUALITY CONTROL.

...OBSERVATIONS IN AND NEAR THE EASTERN PANHANDLE OF NEBRASKA...

CITY           SKY/WX    TMP DP  RH WIND       PRES   REMARKS
PINE RIDGE     CLEAR     75  52  44 S10       29.93R
CHADRON        CLEAR     75  50  41 S9        29.91R
ALLIANCE       CLEAR     64  52  64 SE10      29.98F
SIDNEY         CLEAR     68  54  60 SE12      30.04S
CRESCENT LAKE    N/A     71  58  63 S6          N/A
$$

...OBSERVATIONS IN NORTHERN NEBRASKA AND FAR SOUTHERN SOUTH DAKOTA...

CITY           SKY/WX    TMP DP  RH WIND       PRES   REMARKS
WINNER         FAIR      76  65  68 SE9       29.91R
VALENTINE      CLEAR     69  57  65 SW3       29.95R
THEDFORD       CLEAR     76  61  59 S9        29.99R
AINSWORTH      PTCLDY    75  63  66 S8        29.97R
O`NEILL        CLEAR     76  61  60 SE8       29.98R
ORD            CLOUDY    73  61  65 S6        29.99R
BROKEN BOW     CLEAR     73  64  73 S9        30.01R
VALENTINE NWR    N/A     78  59  52 S5G12       N/A
BUTTE            N/A     74  63  67 SE9         N/A
HALSEY           N/A     77  60  54 S8G16       N/A
EWING            N/A     71  66  84 CALM        N/A
$$

...OBSERVATIONS IN SOUTHWEST NEBRASKA AND FAR NORTHEAST COLORADO...

CITY           SKY/WX    TMP DP  RH WIND       PRES   REMARKS
HOLYOKE        FAIR      68  59  73 SE8       30.03R
IMPERIAL       CLEAR     71  62  73 E6        30.01R
OGALLALA       CLEAR     73  58  58 CALM      30.00S
NORTH PLATTE   CLEAR     72  63  73 SE7       30.01R
MCCOOK         CLOUDY    74  64  71 E7        29.99R
LEXINGTON      CLOUDY    74  65  73 SE7       30.02R
STAPLETON        N/A     71  63  75 CALM        N/A
GOTHENBURG       N/A     76  62  62 SE3         N/A
CALLAWAY         N/A     72  65  77 S8          N/A
$$

...OBSERVATIONS IN CENTRAL LINCOLN COUNTY AREA...

CITY           SKY/WX    TMP DP  RH WIND       PRES   REMARKS
N.P. AIRPORT   CLEAR     72  63  73 SE7       30.01R
N.P. DOWNTOWN    N/A     75  65  71 CALM        N/A
N.P. SOUTHEAST   N/A     74  65  73 CALM        N/A
N.P. HILLCREST   N/A     72  64  76 SE6         N/A
$$

...SOME OBSERVATIONS FROM AROUND THE REGION...

CITY           SKY/WX    TMP DP  RH WIND       PRES   REMARKS
DENVER         CLOUDY    69  37  30 SE10      30.07R
LARAMIE        CLOUDY    64  30  27 W7        30.19R
CHEYENNE       CLOUDY    69  39  33 S6        30.12R
SCOTTSBLUFF    CLEAR     69  54  58 E8        29.98R
RAPID CITY     PTCLDY    70  51  51 SE5       29.90S
BISMARCK       CLEAR     63  54  72 SE6       29.88S
PIERRE         PTCLDY    73  56  54 E7        29.88S
SIOUX FALLS    PTCLDY    72  65  78 SE8       30.00R
OMAHA          PTCLDY    75  67  76 E6        30.01R
GRAND ISLAND   PTCLDY    73  65  75 SE7       30.01R
KANSAS CITY    LGT RAIN  73  68  84 S5        30.02R
WICHITA        PTCLDY    81  70  69 SE8       30.00R
OKLAHOMA CITY  CLOUDY    78  69  73 SE5       29.99S
DALLAS         PTCLDY    84  68  58 SE7       29.97R
AMARILLO       CLEAR     75  63  66 SE14      30.06R
DODGE CITY     CLOUDY    74  59  59 S9        30.01R
HAYS           PTCLDY    75  61  60 SE8       29.99R
GOODLAND       CLOUDY    74  55  51 S10       30.02R
$$




USA.gov is the U.S. government's official web portal to all federal, state and local government web resources and services.